Weather History for McCook, NE

Change the Weather History Date:

Friday, October 4, 2013

  Actual Average Record
Temperature  
Mean Temperature 50 °F 56 °F  
Max Temperature 61 °F 71 °F 96 °F (1967)
Min Temperature 39 °F 41 °F 32 °F (1911)
Degree Days  
Heating Degree Days 15    
Moisture  
Dew Point 48 °F    
Average Humidity 79    
Maximum Humidity 97    
Minimum Humidity 46    
Precipitation  
Precipitation T in 0.06 in 0.45 in (1986)
Month to date precipitation T 0.24  
Year to date precipitation 11.52 19.39  
Sea Level Pressure  
Sea Level Pressure 29.75 in    
Wind  
Wind Speed 15 mph (NW)    
Max Wind Speed 33 mph    
Max Gust Speed 48 mph    
Visibility 6 miles    
Events Fog , Rain    
T = Trace of Precipitation, MM = Missing Value Source: NWS Daily Summary

Daily Weather History Graph

Daily Weather History Graph

Search for Another Location

Airport:

Trip Planner

Search our weather history database for the weather conditions in past years. The results will help you decide how hot, cold, wet, or windy it might be!

Date:

Astronomy

Oct. 04, 2013 Rise Set
Actual Time 7:42 AM CDT 7:19 PM CDT
Civil Twilight 7:14 AM CDT 7:46 PM CDT
Nautical Twilight 6:43 AM CDT 8:17 PM CDT
Astronomical Twilight 6:11 AM CDT 8:49 PM CDT
Moon 7:19 AM CDT (10/4) 7:02 PM CDT (10/4)
Length of Visible Light 12h 31m
Length of Day
11h 37m
Waning Crescent, 0% of the Moon is Illuminated
Oct 4
Waning Crescent
Oct 4
New
Oct 11
First Quarter
Oct 18
Full
Oct 26
Last Quarter

Hourly Weather History & Observations

Time (CDT) Temp. Windchill Dew Point Humidity Pressure Visibility Wind Dir Wind Speed Gust Speed Precip Events Conditions
12:53 AM 60.1 °F - 57.9 °F 93% 29.62 in 5.0 mi ENE 16.1 mph - N/A   Overcast
1:53 AM 61.0 °F - 57.9 °F 90% 29.60 in 6.0 mi NE 17.3 mph 21.9 mph N/A   Overcast
2:53 AM 60.1 °F - 57.9 °F 93% 29.61 in 7.0 mi ENE 9.2 mph - N/A   Overcast
3:53 AM 60.1 °F - 57.0 °F 90% 29.63 in 7.0 mi NE 6.9 mph - N/A   Overcast
4:53 AM 60.1 °F - 57.9 °F 93% 29.60 in 6.0 mi NNE 8.1 mph - N/A   Overcast
5:53 AM 60.1 °F - 57.9 °F 93% 29.62 in 6.0 mi North 6.9 mph - N/A   Overcast
6:53 AM 60.1 °F - 57.0 °F 90% 29.62 in 5.0 mi North 8.1 mph - N/A   Overcast
7:32 AM 59.0 °F - 57.2 °F 94% 29.65 in 4.0 mi North 6.9 mph - N/A   Overcast
7:53 AM 59.0 °F - 57.0 °F 93% 29.61 in 3.0 mi North 9.2 mph - N/A   Overcast
7:58 AM 59.0 °F - 57.2 °F 94% 29.64 in 1.8 mi NNW 10.4 mph - N/A   Overcast
8:10 AM 59.0 °F - 57.2 °F 94% 29.63 in 0.5 mi North 11.5 mph - N/A Fog Fog
8:53 AM 57.9 °F - 57.0 °F 97% 29.62 in 1.0 mi North 10.4 mph - N/A   Overcast
9:15 AM 59.0 °F - 57.2 °F 94% 29.66 in 2.0 mi North 6.9 mph - N/A   Overcast
9:30 AM 59.0 °F - 57.2 °F 94% 29.66 in 3.0 mi NNW 5.8 mph - N/A   Overcast
9:53 AM 59.0 °F - 57.0 °F 93% 29.65 in 4.0 mi WNW 8.1 mph - N/A   Overcast
10:53 AM 57.9 °F - 55.9 °F 93% 29.68 in 3.0 mi West 17.3 mph - 0.00 in Rain Light Rain
11:02 AM 57.2 °F - 55.4 °F 94% 29.70 in 2.0 mi West 13.8 mph 23.0 mph 0.00 in Rain Light Rain
11:17 AM 57.2 °F - 55.4 °F 94% 29.70 in 2.5 mi West 15.0 mph - 0.00 in   Overcast
11:24 AM 57.2 °F - 55.4 °F 94% 29.71 in 7.0 mi West 18.4 mph 25.3 mph 0.00 in   Overcast
11:53 AM 55.9 °F - 53.1 °F 90% 29.70 in 4.0 mi West 24.2 mph 32.2 mph 0.00 in   Overcast
12:25 PM 55.4 °F - 48.2 °F 77% 29.74 in 10.0 mi West 26.5 mph 34.5 mph N/A   Overcast
12:53 PM 55.0 °F - 45.0 °F 69% 29.75 in 10.0 mi WNW 18.4 mph 35.7 mph N/A   Overcast
1:44 PM 55.4 °F - 42.8 °F 63% 29.80 in 10.0 mi West 26.5 mph 38.0 mph N/A   Scattered Clouds
1:53 PM 55.9 °F - 41.0 °F 57% 29.78 in 10.0 mi WNW 23.0 mph 35.7 mph N/A   Partly Cloudy
2:53 PM 55.0 °F - 37.0 °F 51% 29.81 in 10.0 mi WNW 26.5 mph 38.0 mph N/A   Clear
3:53 PM 53.1 °F - 34.0 °F 48% 29.84 in 10.0 mi West 33.4 mph 42.6 mph N/A   Partly Cloudy
4:53 PM 51.1 °F - 32.0 °F 48% 29.90 in 10.0 mi West 31.1 mph 41.4 mph N/A   Clear
5:53 PM 48.9 °F - 28.9 °F 46% 29.94 in 10.0 mi WNW 33.4 mph 48.3 mph N/A   Clear
6:53 PM 46.0 °F 36.4 °F 30.0 °F 54% 29.95 in 10.0 mi WNW 32.2 mph 38.0 mph N/A   Clear
7:53 PM 42.1 °F 31.9 °F 27.0 °F 55% 29.98 in 10.0 mi WNW 26.5 mph 47.2 mph N/A   Clear
8:53 PM 41.0 °F 30.5 °F 30.0 °F 65% 30.00 in 10.0 mi WNW 26.5 mph 34.5 mph N/A   Clear
9:53 PM 39.9 °F 29.7 °F 28.9 °F 65% 30.04 in 10.0 mi WNW 23.0 mph 31.1 mph N/A   Clear
10:53 PM 39.0 °F 29.9 °F 30.0 °F 70% 30.05 in 10.0 mi WNW 17.3 mph 27.6 mph N/A   Clear
11:53 PM 39.0 °F 29.9 °F 28.9 °F 67% 30.07 in 10.0 mi WNW 17.3 mph 25.3 mph N/A   Clear